GW1710 Weather Reports


time (UTC)temp
C
wind
direction
speed
KPH
gust
KPH
rain 1hr
cm
rain 24hr
cm
rain mn
cm
humidity
%
barometer
mb
20260504215052 23 205 4.8 24.1 0.00 0.00 0.00 40 1008.8
20260504214556 23 219 3.2 17.7 0.00 0.00 0.00 41 1008.7
20260504214050 23 186 3.2 16.1 0.00 0.00 0.00 40 1008.7
20260504213551 23 242 0.0 16.1 0.00 0.00 0.00 41 1008.7
20260504213058 23 272 0.0 17.7 0.00 0.00 0.00 40 1008.7
20260504212548 23 262 1.6 17.7 0.00 0.00 0.00 40 1008.7
20260504212051 23 169 4.8 19.3 0.00 0.00 0.00 40 1008.7
20260504211552 23 267 1.6 19.3 0.00 0.00 0.00 41 1008.6
20260504211054 23 0 1.6 22.5 0.00 0.00 0.00 41 1008.7
20260504210549 23 0 6.4 22.5 0.00 0.00 0.00 42 1008.7
20260504210106 23 229 1.6 16.1 0.00 0.00 0.00 40 1008.7
20260504205550 23 0 3.2 17.7 0.00 0.00 0.00 39 1008.8
20260504205048 23 0 3.2 17.7 0.00 0.00 0.00 38 1008.8
20260504204602 23 0 0.0 11.3 0.00 0.00 0.00 41 1008.7
20260504204051 23 211 1.6 11.3 0.00 0.00 0.00 40 1008.9
20260504203548 23 269 0.0 20.9 0.00 0.00 0.00 38 1008.9
20260504203105 23 0 1.6 20.9 0.00 0.00 0.00 40 1008.9
20260504202551 23 208 4.8 22.5 0.00 0.00 0.00 40 1008.9
20260504202048 23 277 0.0 22.5 0.00 0.00 0.00 40 1009.1
20260504201557 23 0 1.6 20.9 0.00 0.00 0.00 40 1009.1
20260504201050 23 141 1.6 19.3 0.00 0.00 0.00 40 1009.1
20260504200551 23 0 3.2 19.3 0.00 0.00 0.00 41 1009.3
20260504200057 22 0 3.2 19.3 0.00 0.00 0.00 40 1009.4
20260504195550 23 233 3.2 14.5 0.00 0.00 0.00 41 1009.5
20260504195051 22 0 1.6 20.9 0.00 0.00 0.00 42 1009.5
20260504194600 23 259 0.0 20.9 0.00 0.00 0.00 41 1009.6
20260504194049 22 277 4.8 29.0 0.00 0.00 0.00 42 1009.7
20260504193551 22 252 1.6 30.6 0.00 0.00 0.00 44 1009.8
20260504193053 22 245 4.8 30.6 0.00 0.00 0.00 42 1009.7
20260504192551 22 278 1.6 24.1 0.00 0.00 0.00 41 1009.8
20260504192053 22 331 3.2 24.1 0.00 0.00 0.00 41 1010.0
20260504191551 22 250 3.2 22.5 0.00 0.00 0.00 43 1010.0
20260504191051 22 0 4.8 22.5 0.00 0.00 0.00 41 1010.0
20260504190551 22 201 3.2 24.1 0.00 0.00 0.00 40 1010.1
20260504190121 22 195 4.8 24.1 0.00 0.00 0.00 42 1010.1
20260504185551 22 0 1.6 27.4 0.00 0.00 0.00 41 1010.2
20260504185049 22 0 3.2 27.4 0.00 0.00 0.00 42 1010.2
20260504184552 22 285 3.2 22.5 0.00 0.00 0.00 43 1010.3
20260504184051 22 0 3.2 22.5 0.00 0.00 0.00 44 1010.4
20260504183551 22 180 1.6 20.9 0.00 0.00 0.00 41 1010.5
20260504183052 22 246 3.2 20.9 0.00 0.00 0.00 40 1010.6
20260504182548 22 294 1.6 14.5 0.00 0.00 0.00 41 1010.5
20260504182050 22 0 0.0 14.5 0.00 0.00 0.00 43 1010.7
20260504181550 22 227 1.6 14.5 0.00 0.00 0.00 44 1010.7
20260504181051 22 250 0.0 11.3 0.00 0.00 0.00 41 1010.8
20260504180552 22 290 1.6 11.3 0.00 0.00 0.00 42 1010.8
20260504180054 21 251 0.0 24.1 0.00 0.00 0.00 43 1010.9
20260504175554 21 215 1.6 24.1 0.00 0.00 0.00 40 1011.0
20260504175052 21 238 1.6 22.5 0.00 0.00 0.00 41 1011.1
20260504174555 21 252 1.6 22.5 0.00 0.00 0.00 41 1011.0
20260504174052 21 0 1.6 22.5 0.00 0.00 0.00 42 1011.2
20260504173551 21 215 1.6 19.3 0.00 0.00 0.00 45 1011.3
20260504173051 21 265 1.6 19.3 0.00 0.00 0.00 43 1011.3
20260504172550 21 269 1.6 19.3 0.00 0.00 0.00 42 1011.6
20260504172050 21 294 0.0 14.5 0.00 0.00 0.00 43 1011.6
20260504171553 21 0 1.6 14.5 0.00 0.00 0.00 42 1011.6
20260504171051 21 0 1.6 12.9 0.00 0.00 0.00 43 1011.7
20260504170550 21 0 0.0 24.1 0.00 0.00 0.00 43 1011.8
20260504151048 18 246 1.6 20.9 0.00 0.00 0.00 45 1013.3
20260504150551 18 207 1.6 17.7 0.00 0.00 0.00 44 1013.3
20260504141051 16 230 1.6 16.1 0.00 0.00 0.00 50 1013.6
20260504140551 16 190 0.0 3.2 0.00 0.00 0.00 53 1013.6
20260504130551 13 0 0.0 6.4 0.00 0.00 0.00 58 1013.8
20260504110553 3 0 0.0 0.0 0.00 0.00 0.00 88 1013.9
20260504100552 2 0 0.0 0.0 0.00 0.00 0.00 88 1014.1
20260504081607 4 0 0.0 0.0 0.00 0.00 0.00 81 1014.4
20260504081050 4 0 0.0 0.0 0.00 0.00 0.00 81 1014.4
20260504080551 3 0 0.0 0.0 0.00 0.00 0.00 81 1014.4
20260504060115 7 0 0.0 0.0 0.00 0.00 0.00 68 1014.5
20260504050550 6 184 0.0 1.6 0.00 0.00 0.00 70 1014.7
20260504050117 7 0 0.0 0.0 0.00 0.00 0.00 70 1014.8
20260504045549 7 0 0.0 0.0 0.00 0.00 0.00 69 1014.8
20260504045048 7 0 0.0 0.0 0.00 0.00 0.00 68 1014.7
20260504044553 7 0 0.0 0.0 0.00 0.00 0.00 69 1014.7
20260504044054 7 0 0.0 0.0 0.00 0.00 0.00 69 1014.6
20260504043551 7 0 0.0 0.0 0.00 0.00 0.00 67 1014.6
20260504043106 7 0 0.0 0.0 0.00 0.00 0.00 68 1014.5
20260504042550 7 0 0.0 0.0 0.00 0.00 0.00 67 1014.6
20260504042051 7 0 0.0 0.0 0.00 0.00 0.00 68 1014.5
20260504041550 7 0 0.0 0.0 0.00 0.00 0.00 68 1014.4
20260504041050 7 0 0.0 0.0 0.00 0.00 0.00 67 1014.3
20260504040550 7 0 0.0 0.0 0.00 0.00 0.00 67 1014.3
20260504040108 7 0 0.0 1.6 0.00 0.00 0.00 67 1014.4
20260504035551 7 0 0.0 1.6 0.00 0.00 0.00 67 1014.3
20260504035051 7 0 0.0 1.6 0.00 0.00 0.00 66 1014.3
20260504034551 8 0 0.0 1.6 0.00 0.00 0.00 66 1014.3
20260504034048 8 0 0.0 1.6 0.00 0.00 0.00 65 1014.3
20260504033548 8 0 0.0 1.6 0.00 0.00 0.00 65 1014.3
20260504033057 8 0 0.0 1.6 0.00 0.00 0.00 65 1014.3
20260504032551 7 0 0.0 1.6 0.00 0.00 0.00 66 1014.2
20260504032052 7 0 0.0 1.6 0.00 0.00 0.00 67 1014.3
20260504031604 7 0 0.0 1.6 0.00 0.00 0.00 66 1014.2
20260504031050 7 0 0.0 1.6 0.00 0.00 0.00 65 1014.1
20260504030551 8 0 0.0 1.6 0.00 0.00 0.00 65 1014.2
20260504030056 7 0 0.0 1.6 0.00 0.00 0.00 65 1014.1
20260504025551 7 0 0.0 1.6 0.00 0.00 0.00 65 1014.1
20260504025050 7 0 0.0 1.6 0.00 0.00 0.00 65 1014.1
20260504024553 8 0 0.0 1.6 0.00 0.00 0.00 66 1014.0
20260504024048 8 0 0.0 1.6 0.00 0.00 0.00 64 1014.0
20260504023548 8 0 0.0 0.0 0.00 0.00 0.00 64 1014.0
20260504023054 8 0 0.0 0.0 0.00 0.00 0.00 63 1014.0
20260504022551 8 0 0.0 1.6 0.00 0.00 0.00 62 1014.1
20260504022050 8 0 0.0 1.6 0.00 0.00 0.00 62 1014.1
20260504021555 8 0 0.0 1.6 0.00 0.00 0.00 62 1014.2
20260504021050 8 0 0.0 1.6 0.00 0.00 0.00 62 1014.2
20260504020550 8 0 0.0 1.6 0.00 0.00 0.00 62 1014.2
20260504020057 8 0 0.0 1.6 0.00 0.00 0.00 62 1014.0
20260504015551 8 0 0.0 1.6 0.00 0.00 0.00 61 1014.1
20260504015051 8 0 0.0 0.0 0.00 0.00 0.00 62 1014.1
20260504014601 9 0 0.0 0.0 0.00 0.00 0.00 60 1014.0
20260504014050 9 0 0.0 0.0 0.00 0.00 0.00 61 1014.0
20260504013551 9 0 0.0 0.0 0.00 0.00 0.00 60 1013.9
20260504013112 9 0 0.0 0.0 0.00 0.00 0.00 59 1013.9
20260504012552 10 0 0.0 0.0 0.00 0.00 0.00 60 1013.8
20260504012050 10 0 0.0 0.0 0.00 0.00 0.00 57 1013.8
20260504011554 10 0 0.0 1.6 0.00 0.00 0.00 57 1013.8
20260504011051 10 0 0.0 1.6 0.00 0.00 0.00 56 1013.7
20260504010551 10 0 0.0 1.6 0.00 0.00 0.00 56 1013.7
20260504010111 10 0 0.0 0.0 0.00 0.00 0.00 56 1013.7
20260504005549 11 0 0.0 0.0 0.00 0.00 0.00 53 1013.7
20260504005051 11 0 0.0 0.0 0.00 0.00 0.00 52 1013.6
20260504004550 11 0 0.0 0.0 0.00 0.00 0.00 50 1013.6
20260504004053 12 0 0.0 0.0 0.00 0.00 0.00 49 1013.5
20260504003550 12 0 0.0 1.6 0.00 0.00 0.00 49 1013.5
20260504003053 12 0 0.0 1.6 0.00 0.00 0.00 47 1013.5
20260504002550 12 0 0.0 1.6 0.00 0.00 0.00 46 1013.4
20260504002050 13 284 0.0 1.6 0.00 0.00 0.00 46 1013.4
20260504001559 13 0 0.0 1.6 0.00 0.00 0.00 45 1013.2
20260504001048 13 279 0.0 3.2 0.00 0.00 0.00 44 1013.2
20260504000550 13 0 0.0 3.2 0.00 0.00 0.00 45 1013.1
20260504000055 13 0 0.0 3.2 0.00 0.00 0.00 44 1013.1
20260503235551 13 284 0.0 3.2 0.00 0.00 0.00 43 1013.1
20260503235048 14 0 0.0 9.7 0.00 0.00 0.00 44 1012.8
20260503234555 14 0 0.0 9.7 0.00 0.00 0.00 43 1012.9
20260503234053 14 0 0.0 11.3 0.00 0.00 0.00 42 1012.9
20260503233551 14 0 0.0 11.3 0.00 0.00 0.00 41 1012.8
20260503233100 15 0 0.0 19.3 0.00 0.00 0.00 42 1012.8
20260503232550 15 0 0.0 19.3 0.00 0.00 0.00 41 1012.7
20260503232050 15 309 1.6 12.9 0.00 0.00 0.00 40 1012.8
20260503231555 15 284 0.0 12.9 0.00 0.00 0.00 41 1012.7
20260503231050 15 0 0.0 12.9 0.00 0.00 0.00 42 1012.8
20260503230550 15 265 0.0 19.3 0.00 0.00 0.00 42 1012.8
20260503230058 15 251 1.6 19.3 0.00 0.00 0.00 41 1012.8
20260503225552 15 0 0.0 12.9 0.00 0.00 0.00 40 1012.8
20260503225047 15 223 1.6 12.9 0.00 0.00 0.00 40 1012.8
20260503224555 15 0 1.6 6.4 0.00 0.00 0.00 40 1012.7
20260503224051 15 0 0.0 12.9 0.00 0.00 0.00 39 1012.8
20260503223551 15 296 0.0 12.9 0.00 0.00 0.00 39 1012.8
20260503223058 15 5 0.0 22.5 0.00 0.00 0.00 40 1012.8
20260503222548 15 0 0.0 22.5 0.00 0.00 0.00 39 1012.8
20260503222050 15 0 3.2 22.5 0.00 0.00 0.00 38 1012.8
20260503221559 15 298 0.0 12.9 0.00 0.00 0.00 41 1012.7
20260503221052 15 0 0.0 19.3 0.00 0.00 0.00 40 1012.7
20260503220552 15 301 0.0 19.3 0.00 0.00 0.00 40 1012.7
20260503215552 15 333 1.6 16.1 0.00 0.00 0.00 38 1012.7